Weather History for Orange, MA

Change the Weather History Date:

Thursday, June 28, 2012

  Actual Average Record
Temperature  
Mean Temperature 68 °F -  
Max Temperature 84 °F 79 °F 91 °F (1999)
Min Temperature 51 °F 55 °F 45 °F (2004)
Cooling Degree Days 2    
Growing Degree Days 18 (Base 50)    
Moisture  
Dew Point 53 °F    
Average Humidity 72    
Maximum Humidity 100    
Minimum Humidity 25    
Precipitation  
Precipitation 0.00 in - - ()
Sea Level Pressure  
Sea Level Pressure 29.75 in    
Wind  
Wind Speed 2 mph (WNW)    
Max Wind Speed 15 mph    
Max Gust Speed 21 mph    
Visibility 9 miles    
Events Fog    
Averages and records for this station are not official NWS values.
T = Trace of Precipitation, MM = Missing Value Source: NWS Daily Summary

Daily Weather History Graph

Daily Weather History Graph

Search for Another Location

Airport:

Trip Planner

Search our weather history database for the weather conditions in past years. The results will help you decide how hot, cold, wet, or windy it might be!

Date:

Astronomy

Jun. 28, 2012 Rise Set
Actual Time 5:14 AM EDT 8:30 PM EDT
Civil Twilight 4:39 AM EDT 9:05 PM EDT
Nautical Twilight 3:54 AM EDT 9:50 PM EDT
Astronomical Twilight 2:59 AM EDT 10:45 PM EDT
Moon 2:58 PM EDT (6/28) 12:50 AM EDT (6/28)
Length of Visible Light 16h 26m
Length of Day
15h 16m
Waxing Gibbous, 67% of the Moon is Illuminated
Jun 28
Waxing Gibbous
Jul 3
Full
Jul 10
Last Quarter
Jul 19
New
Jul 26
First Quarter

Hourly Weather History & Observations

Time (EDT) Temp. Heat Index Dew Point Humidity Pressure Visibility Wind Dir Wind Speed Gust Speed Precip Events Conditions
12:52 AM 57.9 °F - 57.0 °F 97% 29.76 in 10.0 mi Calm Calm - N/A   Clear
1:52 AM 55.9 °F - 55.0 °F 97% 29.76 in 10.0 mi Calm Calm - N/A   Clear
2:52 AM 54.0 °F - 53.1 °F 97% 29.76 in 10.0 mi Calm Calm - N/A   Clear
3:52 AM 53.1 °F - 52.0 °F 96% 29.75 in 10.0 mi Calm Calm - N/A   Clear
4:11 AM 51.8 °F - 51.8 °F 100% 29.76 in 10.0 mi Calm Calm - N/A   Partly Cloudy
4:52 AM 51.1 °F - 50.0 °F 96% 29.76 in 10.0 mi Calm Calm - N/A   Clear
5:12 AM 51.8 °F - 51.8 °F 100% 29.76 in 10.0 mi Calm Calm - N/A   Scattered Clouds
5:21 AM 51.8 °F - 51.8 °F 100% 29.77 in 10.0 mi Calm Calm - N/A   Mostly Cloudy
5:29 AM 51.8 °F - 51.8 °F 100% 29.77 in 0.8 mi Calm Calm - N/A   Mist
5:52 AM 52.0 °F - 52.0 °F 100% 29.77 in 0.2 mi Calm Calm - N/A Fog Fog
6:45 AM 53.6 °F - 53.6 °F 100% 29.77 in 1.2 mi Calm Calm - N/A   Mostly Cloudy
6:47 AM 53.6 °F - 53.6 °F 100% 29.77 in 2.0 mi Calm Calm - N/A   Mostly Cloudy
6:52 AM 55.0 °F - 54.0 °F 96% 29.77 in 10.0 mi Calm Calm - N/A   Scattered Clouds
8:52 AM 70.0 °F - 55.9 °F 61% 29.78 in 10.0 mi WNW 6.9 mph - N/A   Clear
9:52 AM 73.9 °F - 55.0 °F 52% 29.77 in 10.0 mi West 9.2 mph - N/A   Clear
10:52 AM 75.9 °F - 54.0 °F 46% 29.77 in 10.0 mi Variable 4.6 mph - N/A   Clear
11:52 AM 80.1 °F - 52.0 °F 38% 29.75 in 10.0 mi Variable 6.9 mph 16.1 mph N/A   Clear
12:52 PM 82.0 °F - 46.0 °F 28% 29.75 in 10.0 mi NNW 15.0 mph 20.7 mph N/A   Clear
1:52 PM 82.9 °F - 44.1 °F 25% 29.74 in 10.0 mi NW 12.7 mph 18.4 mph N/A   Partly Cloudy
2:52 PM 84.9 °F - 46.9 °F 27% 29.74 in 10.0 mi WNW 12.7 mph - N/A   Clear
3:52 PM 84.0 °F - 48.9 °F 29% 29.73 in 10.0 mi NNW 12.7 mph - N/A   Clear
4:52 PM 84.0 °F - 51.1 °F 32% 29.71 in 10.0 mi West 8.1 mph - N/A   Clear
5:52 PM 84.0 °F - 52.0 °F 33% 29.70 in 10.0 mi WSW 8.1 mph - N/A   Clear
6:52 PM 82.0 °F 81.2 °F 53.1 °F 37% 29.71 in 10.0 mi SW 5.8 mph - N/A   Clear
7:52 PM 75.0 °F - 61.0 °F 62% 29.70 in 10.0 mi SSW 4.6 mph - N/A   Clear
8:52 PM 69.1 °F - 61.0 °F 75% 29.70 in 10.0 mi Calm Calm - N/A   Clear
9:52 PM 66.0 °F - 61.0 °F 84% 29.72 in 10.0 mi Calm Calm - N/A   Clear
10:52 PM 64.0 °F - 61.0 °F 90% 29.73 in 10.0 mi Calm Calm - N/A   Clear
11:52 PM 62.1 °F - 60.1 °F 93% 29.72 in 10.0 mi Calm Calm - N/A   Clear